Simultaneous Nadir Overpasses (SNOs) Predictions

Prediction of SNOs between GOES-15 and METOP-C Satellite Orbit:

Table of predicted SNOs for the next 14.0 days since TLE Epoch: 3/31/2024
Index Date Time (GOES-15) GOES-15 Lat,Lon METOP-C Lat,Lon Distance(km) Time Diff (sec)
1 03/31/2024 17:06:37 0.06, 61.18 0.99, 65.22 460.94 80
2 04/02/2024 05:25:28 -0.07, 61.22 0.07, 60.67 63.75 80
3 04/04/2024 17:23:46 0.08, 61.21 0.04, 61.07 15.65 80
4 04/07/2024 05:24:36 -0.08, 61.27 -0.16, 61.51 27.92 80
5 04/08/2024 17:43:34 0.09, 61.24 -0.88, 56.92 492.37 80
6 04/09/2024 17:20:13 0.09, 61.26 0.24, 61.92 75.91 80
7 04/11/2024 05:39:04 -0.10, 61.32 0.79, 57.37 450.57 80
8 04/12/2024 05:21:03 -0.10, 61.33 -0.34, 62.36 117.52 80
9 04/13/2024 17:40:00 0.11, 61.31 -0.68, 57.78 403.38 80
